,,PA_Meas_PMT16A,,PR_Meas_QMR101_102,,RH_Meas_QMH101,,SR_Meas_QMS101,,TA_Meas_QMH101,,GenWind,,GenWind,
time,status,PA,status,PR,status,RH,status,SR,status,TA,status,DirAvg,status,SpdAvg,
2012-11-22, 07:37:04,VALID,920.032,VALID,0,VALID,89.5751,VALID,153.319,VALID,20.8356,VALID,108,VALID,0,
2012-11-22, 07:38:04,INVALID,917.815,VALID,0,VALID,89.1787,VALID,155.467,VALID,20.8161,VALID,108,VALID,0,
2012-11-22, 07:39:04,VALID,917.858,VALID,0,VALID,89.0186,VALID,157.186,VALID,20.8356,VALID,108,VALID,0,
2012-11-22, 07:40:04,VALID,917.867,VALID,0,VALID,88.1648,VALID,157.616,VALID,20.8746,VALID,108,VALID,0,
2012-11-22, 07:41:04,VALID,918.237,VALID,0,VALID,88.7594,VALID,158.691,VALID,20.9917,VALID,108,VALID,0,
2012-11-22, 07:42:04,VALID,918.006,VALID,0,VALID,88.7594,VALID,160.625,VALID,21.0697,VALID,108,VALID,0,
2012-11-22, 07:43:04,VALID,917.912,VALID,0,VALID,88.5536,VALID,162.344,VALID,21.1478,VALID,108,VALID,0,
2012-11-22, 07:44:04,VALID,918.001,VALID,0,VALID,87.7913,VALID,164.063,VALID,21.1461,VALID,112,VALID,0,
2012-11-22, 07:45:04,VALID,917.978,VALID,0,VALID,87.3567,VALID,165.244,VALID,21.1868,VALID,106,VALID,0,
2012-11-22, 07:46:04,VALID,917.953,VALID,0,VALID,88.1572,VALID,166.319,VALID,21.2274,VALID,106,VALID,0,
2012-11-22, 07:47:04,VALID,917.911,VALID,0,VALID,87.4863,VALID,167.286,VALID,21.2047,VALID,133,VALID,0,
2012-11-22, 07:48:04,VALID,917.991,VALID,0,VALID,87.2424,VALID,168.038,VALID,21.1868,VALID,115,VALID,0,
2012-11-22, 07:49:04,VALID,917.994,VALID,0,VALID,87.189,VALID,168.575,VALID,21.1673,VALID,137,VALID,0,
2012-11-22, 07:50:04,VALID,918.09,VALID,0,VALID,87.6845,VALID,169.542,VALID,21.1868,VALID,136,VALID,0,
2012-11-22, 07:51:04,VALID,917.866,VALID,0,VALID,87.8294,VALID,170.079,VALID,21.2453,VALID,131,VALID,0,
2012-11-22, 07:52:04,VALID,918.034,VALID,0,VALID,87.1128,VALID,170.724,VALID,21.2648,VALID,95,VALID,0,
2012-11-22, 07:53:04,VALID,918.216,VALID,0,VALID,88.1496,VALID,171.798,VALID,21.2648,VALID,109,VALID,0,
2012-11-22, 07:54:04,VALID,918.149,VALID,0,VALID,87.8218,VALID,172.873,VALID,21.2453,VALID,110,VALID,0,
2012-11-22, 07:55:04,VALID,918.058,VALID,0,VALID,88.1572,VALID,174.162,VALID,21.3038,VALID,110,VALID,0,
2012-11-22, 07:56:04,VALID,918.068,VALID,0,VALID,87.4787,VALID,177.493,VALID,21.3022,VALID,146,VALID,0,
2012-11-22, 07:57:04,VALID,918.156,VALID,0,VALID,87.0289,VALID,187.27,VALID,21.3803,VALID,161,VALID,0,
2012-11-22, 07:58:04,VALID,918.088,VALID,0,VALID,86.2894,VALID,197.477,VALID,21.4209,VALID,166,VALID,0,
2012-11-22, 07:59:04,VALID,918.063,VALID,0,VALID,85.6872,VALID,203.923,VALID,21.4014,VALID,149,VALID,0,
2012-11-22, 08:00:04,VALID,918.147,VALID,0,VALID,86.6706,VALID,209.833,VALID,21.3998,VALID,145,VALID,0,
2012-11-22, 08:01:04,VALID,918.106,VALID,0,VALID,86.5791,VALID,203.601,VALID,21.4794,VALID,156,VALID,0,
2012-11-22, 08:02:04,VALID,918.098,VALID,0,VALID,86.3885,VALID,194.254,VALID,21.4973,VALID,132,VALID,0,
2012-11-22, 08:03:04,VALID,918.193,VALID,0,VALID,86.5334,VALID,186.196,VALID,21.3998,VALID,100,VALID,0,
2012-11-22, 08:04:04,VALID,918.144,VALID,0,VALID,86.419,VALID,186.088,VALID,21.2632,VALID,123,VALID,0,
2012-11-22, 08:05:04,VALID,918.11,VALID,0,VALID,87.4482,VALID,190.493,VALID,21.1852,VALID,116,VALID,0,
2012-11-22, 08:06:04,VALID,918.186,VALID,0,VALID,87.1738,VALID,191.675,VALID,21.1071,VALID,104,VALID,0,
2012-11-22, 08:07:04,VALID,918.244,VALID,0,VALID,88.9576,VALID,192.964,VALID,21.1282,VALID,111,VALID,0,
2012-11-22, 08:08:04,VALID,918.16,VALID,0,VALID,88.0733,VALID,192.749,VALID,21.0096,VALID,108,VALID,0,
2012-11-22, 08:09:04,VALID,918.091,VALID,0,VALID,89.1025,VALID,193.394,VALID,20.9917,VALID,116,VALID,0,
2012-11-22, 08:10:04,VALID,918.038,VALID,0,VALID,89.4608,VALID,195.758,VALID,20.9917,VALID,109,VALID,0,
2012-11-22, 08:11:04,VALID,918.142,VALID,0,VALID,89.5446,VALID,199.948,VALID,21.0697,VALID,126,VALID,0,
2012-11-22, 08:12:04,VALID,918.146,VALID,0,VALID,89.5751,VALID,207.899,VALID,21.1282,VALID,106,VALID,0,
2012-11-22, 08:13:04,VALID,918.165,VALID,0,VALID,88.2563,VALID,218.535,VALID,21.1461,VALID,118,VALID,0,
2012-11-22, 08:14:04,VALID,918.194,VALID,0,VALID,88.4164,VALID,231.643,VALID,21.1657,VALID,125,VALID,0,
2012-11-22, 08:15:04,VALID,918.008,VALID,0,VALID,88.5765,VALID,238.197,VALID,21.2453,VALID,131,VALID,0,
2012-11-22, 08:16:04,VALID,918.298,VALID,0,VALID,88.7899,VALID,239.271,VALID,21.3234,VALID,104,VALID,0,
2012-11-22, 08:17:04,VALID,918.201,VALID,0,VALID,87.8141,VALID,260.222,VALID,21.3217,VALID,122,VALID,0,
2012-11-22, 08:18:04,VALID,918.249,VALID,0,VALID,88.7899,VALID,258.289,VALID,21.4388,VALID,93,VALID,0,
2012-11-22, 08:19:04,VALID,918.237,VALID,0,VALID,87.9513,VALID,271.181,VALID,21.5949,VALID,105,VALID,0,
2012-11-22, 08:20:04,VALID,918.198,VALID,0,VALID,86.8993,VALID,277.735,VALID,21.6729,VALID,116,VALID,0,
2012-11-22, 08:21:04,VALID,918.201,VALID,0,VALID,86.198,VALID,274.727,VALID,21.8681,VALID,119,VALID,0,
2012-11-22, 08:22:04,VALID,918.854,VALID,0,VALID,84.597,VALID,276.661,VALID,21.9071,VALID,128,VALID,0,
2012-11-22, 08:23:04,VALID,918.16,VALID,0,VALID,84.2921,VALID,287.942,VALID,21.9868,VALID,128,VALID,0,
2012-11-22, 08:24:04,VALID,918.242,VALID,0,VALID,83.8042,VALID,293.852,VALID,22.0827,VALID,96,VALID,0,
2012-11-22, 08:25:04,VALID,918.216,VALID,0,VALID,83.4764,VALID,310.935,VALID,22.0827,VALID,159,VALID,0,
2012-11-22, 08:26:04,VALID,918.068,VALID,0,VALID,83.7813,VALID,308.571,VALID,22.1998,VALID,159,VALID,0,
2012-11-22, 08:27:04,VALID,918.145,VALID,0,VALID,82.2262,VALID,301.48,VALID,22.3169,VALID,146,VALID,0,
2012-11-22, 08:28:04,VALID,918.078,VALID,0,VALID,81.4486,VALID,305.67,VALID,22.434,VALID,146,VALID,0,
2012-11-22, 08:29:04,VALID,918.114,VALID,0,VALID,80.8311,VALID,309.431,VALID,22.5121,VALID,146,VALID,0,
2012-11-22, 08:30:04,VALID,918.059,VALID,0,VALID,81.3495,VALID,302.339,VALID,22.6096,VALID,146,VALID,0,
2012-11-22, 08:31:04,VALID,918.141,VALID,0,VALID,80.9226,VALID,286.76,VALID,22.7267,VALID,152,VALID,0,
2012-11-22, 08:32:04,VALID,918.06,VALID,0,VALID,79.5275,VALID,289.124,VALID,22.8048,VALID,152,VALID,0,
2012-11-22, 08:33:04,VALID,918.014,VALID,0,VALID,78.3458,VALID,297.719,VALID,22.9219,VALID,152,VALID,0,
2012-11-22, 08:34:04,VALID,918.093,VALID,0,VALID,77.4768,VALID,304.596,VALID,23.0195,VALID,152,VALID,0,
2012-11-22, 08:35:04,VALID,918.015,VALID,0,VALID,78.2162,VALID,312.009,VALID,23.0391,VALID,152,VALID,0,
2012-11-22, 08:36:04,VALID,918.17,VALID,0,VALID,78.5212,VALID,317.703,VALID,23.1154,VALID,152,VALID,0,
2012-11-22, 08:37:04,VALID,918.063,VALID,0,VALID,75.2355,VALID,327.803,VALID,23.2538,VALID,152,VALID,0,
2012-11-22, 08:38:04,VALID,918.044,VALID,0,VALID,75.609,VALID,344.134,VALID,23.3123,VALID,152,VALID,0,
2012-11-22, 08:39:04,VALID,918.118,VALID,0,VALID,76.6382,VALID,368.201,VALID,23.4313,VALID,150,VALID,0,
2012-11-22, 08:40:04,VALID,918.342,VALID,0,VALID,77.6445,VALID,405.913,VALID,23.5094,VALID,150,VALID,0,
2012-11-22, 08:41:04,VALID,918.177,VALID,0,VALID,78.3154,VALID,454.154,VALID,23.6247,VALID,150,VALID,0,
2012-11-22, 08:42:04,VALID,918.171,VALID,0,VALID,75.8759,VALID,482.626,VALID,23.8608,VALID,150,VALID,0,
2012-11-22, 08:43:04,VALID,918.194,VALID,0,VALID,75.5328,VALID,490.361,VALID,24.0152,VALID,150,VALID,0,
2012-11-22, 08:44:04,VALID,919.139,VALID,0,VALID,75.4947,VALID,498.527,VALID,24.2105,VALID,151,VALID,0,
2012-11-22, 08:45:04,VALID,918.197,VALID,0,VALID,74.4198,VALID,513.139,VALID,24.269,VALID,240,VALID,0,
2012-11-22, 08:46:04,VALID,918.288,VALID,0,VALID,74.9077,VALID,509.701,VALID,24.1891,VALID,240,VALID,0,
2012-11-22, 08:47:04,VALID,918.125,VALID,0,VALID,74.8772,VALID,538.173,VALID,24.3276,VALID,221,VALID,0,
2012-11-22, 08:48:04,VALID,918.236,VALID,0,VALID,75.7386,VALID,537.528,VALID,24.3667,VALID,248,VALID,0,
2012-11-22, 08:49:04,VALID,918.245,VALID,0,VALID,74.1987,VALID,549.132,VALID,24.3081,VALID,243,VALID,0,
2012-11-22, 08:50:04,VALID,918.285,VALID,0,VALID,74.8924,VALID,547.52,VALID,24.269,VALID,262,VALID,0,
2012-11-22, 08:51:04,VALID,918.246,VALID,0,VALID,73.7718,VALID,557.834,VALID,24.1519,VALID,268,VALID,0,
2012-11-22, 08:52:04,VALID,918.328,VALID,0,VALID,74.7323,VALID,571.479,VALID,24.1305,VALID,268,VALID,0,
2012-11-22, 08:53:04,INVALID,915.454,VALID,0,VALID,73.9929,VALID,568.579,VALID,24.0543,VALID,254,VALID,0,
2012-11-22, 08:54:04,VALID,918.384,VALID,0,VALID,75.0983,VALID,596.513,VALID,24.0738,VALID,254,VALID,0,
2012-11-22, 08:55:04,VALID,918.209,VALID,0,VALID,75.2507,VALID,605.001,VALID,24.1891,VALID,254,VALID,0,
2012-11-22, 08:56:04,VALID,918.139,VALID,0,VALID,74.8315,VALID,595.761,VALID,24.3844,VALID,349,VALID,0,
2012-11-22, 08:57:04,VALID,918.152,VALID,0,VALID,75.6243,VALID,581.042,VALID,24.5601,VALID,276,VALID,0,
2012-11-22, 08:58:04,VALID,918.228,VALID,0,VALID,71.8202,VALID,580.29,VALID,24.6187,VALID,276,VALID,0,
2012-11-22, 08:59:04,VALID,918.274,VALID,0,VALID,73.6498,VALID,625.093,VALID,24.5992,VALID,276,VALID,0,
2012-11-22, 09:00:04,VALID,918.117,VALID,0,VALID,71.8964,VALID,591.893,VALID,24.7554,VALID,276,VALID,0,
2012-11-22, 09:01:04,VALID,918.224,VALID,0,VALID,72.3386,VALID,631.324,VALID,24.6577,VALID,285,VALID,0,
2012-11-22, 09:02:04,VALID,918.158,VALID,0,VALID,72.0565,VALID,620.795,VALID,24.4039,VALID,253,VALID,0,
2012-11-22, 09:03:04,VALID,918.151,VALID,0,VALID,73.7489,VALID,649.159,VALID,24.3063,VALID,258,VALID,0,
2012-11-22, 09:04:04,VALID,918.109,VALID,0,VALID,72.8417,VALID,648.085,VALID,24.2867,VALID,261,VALID,0,
2012-11-22, 09:05:04,VALID,918.163,VALID,0,VALID,73.5355,VALID,623.051,VALID,24.1696,VALID,250,VALID,0,
2012-11-22, 09:06:04,VALID,918.13,VALID,0,VALID,73.7184,VALID,638.738,VALID,24.2086,VALID,244,VALID,0,
2012-11-22, 09:07:04,VALID,918.037,VALID,0,VALID,74.5113,VALID,568.364,VALID,24.3453,VALID,244,VALID,0,
2012-11-22, 09:08:04,VALID,918.147,VALID,0,VALID,70.9054,VALID,574.273,VALID,24.5424,VALID,257,VALID,0,
2012-11-22, 09:09:04,VALID,918.166,VALID,0,VALID,70.5242,VALID,606.828,VALID,24.5992,VALID,250,VALID,0,
2012-11-22, 09:10:04,VALID,918.209,VALID,0,VALID,72.0718,VALID,558.157,VALID,24.6968,VALID,261,VALID,0,
2012-11-22, 09:11:04,VALID,918.239,VALID,0,VALID,71.4085,VALID,533.66,VALID,24.9135,VALID,236,VALID,0,
2012-11-22, 09:12:04,VALID,918.123,VALID,0,VALID,71.1265,VALID,473.386,VALID,24.8549,VALID,258,VALID,0,
2012-11-22, 09:13:04,VALID,918.217,VALID,0,VALID,69.5256,VALID,490.147,VALID,24.7554,VALID,230,VALID,0,
2012-11-22, 09:14:04,VALID,918.171,VALID,0,VALID,70.3946,VALID,461.245,VALID,24.6987,VALID,230,VALID,0,
2012-11-22, 09:15:04,VALID,918.003,VALID,0,VALID,71.6372,VALID,476.931,VALID,24.7749,VALID,230,VALID,0,
2012-11-22, 09:16:04,VALID,918.198,VALID,0,VALID,72.3005,VALID,466.617,VALID,24.9683,VALID,230,VALID,0,
2012-11-22, 09:17:04,VALID,918.131,VALID,0,VALID,68.8166,VALID,469.625,VALID,25.1636,VALID,249,VALID,0,
2012-11-22, 09:18:04,VALID,918.145,VALID,0,VALID,68.1457,VALID,448.459,VALID,25.1441,VALID,249,VALID,0,
2012-11-22, 09:19:04,VALID,919.94,VALID,0,VALID,69.1596,VALID,383.672,VALID,25.105,VALID,260,VALID,0,
2012-11-22, 09:20:04,VALID,918.218,VALID,0,VALID,69.6247,VALID,416.012,VALID,25.1245,VALID,265,VALID,0,
2012-11-22, 09:21:04,VALID,918.118,VALID,0,VALID,67.8941,VALID,304.703,VALID,25.2417,VALID,265,VALID,0,
2012-11-22, 09:22:04,VALID,918.37,VALID,0,VALID,69.7543,VALID,301.802,VALID,25.3198,VALID,265,VALID,0,
2012-11-22, 09:23:04,VALID,918.16,VALID,0,VALID,68.0009,VALID,303.521,VALID,25.5561,VALID,265,VALID,0,
2012-11-22, 09:24:04,VALID,918.229,VALID,0,VALID,65.7977,VALID,303.844,VALID,25.73,VALID,265,VALID,0,
2012-11-22, 09:25:04,VALID,918.01,VALID,0,VALID,68.3363,VALID,298.149,VALID,25.7515,VALID,265,VALID,0,
2012-11-22, 09:26:04,VALID,918.1,VALID,0,VALID,67.6883,VALID,287.513,VALID,25.7691,VALID,5,VALID,0,
2012-11-22, 09:27:04,VALID,918.038,VALID,0,VALID,68.8166,VALID,283.86,VALID,25.6909,VALID,5,VALID,0,
2012-11-22, 09:28:04,VALID,917.889,VALID,0,VALID,66.4991,VALID,280.529,VALID,25.73,VALID,5,VALID,0,
2012-11-22, 09:29:04,VALID,918.036,VALID,0,VALID,67.2004,VALID,278.487,VALID,25.8277,VALID,5,VALID,0,
2012-11-22, 09:30:04,VALID,918.08,VALID,0,VALID,69.0529,VALID,278.595,VALID,25.8882,VALID,5,VALID,0,
2012-11-22, 09:31:04,VALID,917.108,VALID,0,VALID,68.8394,VALID,276.876,VALID,25.9253,VALID,5,VALID,0,
2012-11-22, 09:32:04,VALID,918.079,VALID,0,VALID,69.2664,VALID,276.661,VALID,26.1011,VALID,339,VALID,0,
2012-11-22, 09:33:04,VALID,918.213,VALID,0,VALID,65.9349,VALID,277.306,VALID,26.0425,VALID,296,VALID,0,
2012-11-22, 09:34:04,VALID,918.009,VALID,0,VALID,63.7394,VALID,275.587,VALID,25.8863,VALID,303,VALID,0,
2012-11-22, 09:35:04,VALID,918.085,VALID,0,VALID,68.7708,VALID,273.33,VALID,25.5347,VALID,342,VALID,0,
2012-11-22, 09:36:04,VALID,918.065,VALID,0,VALID,68.6489,VALID,272.901,VALID,25.4565,VALID,342,VALID,0,
2012-11-22, 09:37:04,VALID,917.894,VALID,0,VALID,64.9058,VALID,272.793,VALID,25.3589,VALID,342,VALID,0,
2012-11-22, 09:38:04,VALID,917.96,VALID,0,VALID,65.1268,VALID,273.223,VALID,25.3413,VALID,342,VALID,0,
2012-11-22, 09:39:04,VALID,917.936,VALID,0,VALID,66.5524,VALID,275.157,VALID,25.1831,VALID,342,VALID,0,
2012-11-22, 09:40:04,VALID,917.915,VALID,0,VALID,67.3224,VALID,279.132,VALID,25.1441,VALID,342,VALID,0,
2012-11-22, 09:41:04,VALID,917.947,VALID,0,VALID,67.7798,VALID,286.653,VALID,25.105,VALID,342,VALID,0,
2012-11-22, 09:42:04,VALID,917.932,VALID,0,VALID,69.4874,VALID,300.943,VALID,25.1441,VALID,342,VALID,0,
2012-11-22, 09:43:04,VALID,918.055,VALID,0,VALID,65.691,VALID,330.059,VALID,25.2808,VALID,342,VALID,0,
2012-11-22, 09:44:04,VALID,917.924,VALID,0,VALID,66.7964,VALID,393.879,VALID,25.3589,VALID,342,VALID,0,
2012-11-22, 09:45:04,VALID,917.939,VALID,0,VALID,67.4291,VALID,483.378,VALID,25.4175,VALID,342,VALID,0,
2012-11-22, 09:46:04,VALID,917.941,VALID,0,VALID,67.6578,VALID,568.149,VALID,25.73,VALID,342,VALID,0,
2012-11-22, 09:47:04,VALID,917.828,VALID,0,VALID,67.795,VALID,551.495,VALID,26.1011,VALID,342,VALID,0,
2012-11-22, 09:48:04,VALID,917.977,VALID,0,VALID,65.0887,VALID,496.163,VALID,26.3746,VALID,342,VALID,0,
2012-11-22, 09:49:04,VALID,917.98,VALID,0,VALID,64.5093,VALID,445.236,VALID,26.5505,VALID,342,VALID,0,
2012-11-22, 09:50:04,VALID,917.934,VALID,0,VALID,63.9681,VALID,491.973,VALID,26.6482,VALID,342,VALID,0,
2012-11-22, 09:51:04,VALID,918.145,VALID,0,VALID,63.5488,VALID,567.504,VALID,26.6306,VALID,342,VALID,0,
2012-11-22, 09:52:04,INVALID,921.012,VALID,0,VALID,63.3811,VALID,705.244,VALID,26.4528,VALID,342,VALID,0,
2012-11-22, 09:53:04,VALID,918.912,VALID,0,VALID,64.5246,VALID,605.968,VALID,26.3551,VALID,277,VALID,0,
2012-11-22, 09:54:04,VALID,918.053,VALID,0,VALID,64.9896,VALID,611.233,VALID,26.277,VALID,277,VALID,0,
2012-11-22, 09:55:04,VALID,917.773,VALID,0,VALID,63.686,VALID,607.257,VALID,26.2574,VALID,277,VALID,0,
2012-11-22, 09:56:04,VALID,917.602,VALID,0,VALID,65.5309,VALID,681.714,VALID,26.1011,VALID,240,VALID,0,
2012-11-22, 09:57:04,VALID,917.581,VALID,0,VALID,64.6771,VALID,646.366,VALID,26.023,VALID,239,VALID,0,
2012-11-22, 09:58:04,VALID,917.875,VALID,0,VALID,63.9605,VALID,630.894,VALID,25.9839,VALID,243,VALID,0,
2012-11-22, 09:59:04,VALID,919.32,VALID,0,VALID,65.4699,VALID,707.607,VALID,25.8277,VALID,241,VALID,0,
2012-11-22, 10:00:04,VALID,917.985,VALID,0,VALID,65.2412,VALID,752.948,VALID,25.8081,VALID,261,VALID,0,
2012-11-22, 10:01:04,VALID,917.846,VALID,0,VALID,65.3937,VALID,738.55,VALID,25.6128,VALID,260,VALID,0,
2012-11-22, 10:02:04,VALID,917.941,VALID,0,VALID,66.2399,VALID,770.246,VALID,25.4956,VALID,260,VALID,0,
2012-11-22, 10:03:04,VALID,917.382,VALID,0,VALID,67.1318,VALID,675.483,VALID,25.3784,VALID,260,VALID,0,
2012-11-22, 10:04:04,VALID,917.854,VALID,0,VALID,67.0327,VALID,683.541,VALID,25.3003,VALID,260,VALID,0,
2012-11-22, 10:05:04,VALID,918.3,VALID,0,VALID,68.4659,VALID,673.334,VALID,25.3784,VALID,260,VALID,0,
2012-11-22, 10:06:04,VALID,917.931,VALID,0,VALID,66.6363,VALID,690.739,VALID,25.4175,VALID,250,VALID,0,
2012-11-22, 10:07:04,VALID,917.883,VALID,0,VALID,67.8179,VALID,654.102,VALID,25.398,VALID,254,VALID,0,
2012-11-22, 10:08:04,VALID,916.726,VALID,0,VALID,66.7964,VALID,647.118,VALID,25.4175,VALID,258,VALID,0,
2012-11-22, 10:09:04,VALID,918.048,VALID,0,VALID,66.8878,VALID,676.235,VALID,25.4761,VALID,246,VALID,0,
2012-11-22, 10:10:04,VALID,917.875,VALID,0,VALID,67.9475,VALID,673.011,VALID,25.4937,VALID,265,VALID,0,
2012-11-22, 10:11:04,VALID,918.342,VALID,0,VALID,67.3681,VALID,554.504,VALID,25.7105,VALID,309,VALID,0,
2012-11-22, 10:12:04,VALID,917.88,VALID,0,VALID,66.0493,VALID,659.474,VALID,25.9253,VALID,266,VALID,0,
2012-11-22, 10:13:04,VALID,917.711,VALID,0,VALID,65.4699,VALID,685.367,VALID,25.9234,VALID,251,VALID,0,
2012-11-22, 10:14:04,VALID,917.878,VALID,0,VALID,65.0582,VALID,614.241,VALID,25.8667,VALID,254,VALID,0,
2012-11-22, 10:15:04,VALID,917.741,VALID,0,VALID,66.1255,VALID,621.44,VALID,25.7476,VALID,254,VALID,0,
2012-11-22, 10:16:04,VALID,918.911,VALID,0,VALID,66.5905,VALID,534.305,VALID,25.9038,VALID,254,VALID,0,
2012-11-22, 10:17:04,VALID,917.459,VALID,0,VALID,65.0582,VALID,555.148,VALID,25.9429,VALID,254,VALID,0,
2012-11-22, 10:18:04,VALID,917.572,VALID,0,VALID,65.3403,VALID,608.762,VALID,26.1011,VALID,254,VALID,0,
2012-11-22, 10:19:04,VALID,918.893,VALID,0,VALID,65.6147,VALID,627.779,VALID,26.2945,VALID,309,VALID,0,
2012-11-22, 10:20:04,VALID,917.713,VALID,0,VALID,64.4407,VALID,652.92,VALID,26.6266,VALID,309,VALID,0,
2012-11-22, 10:21:04,VALID,917.995,VALID,0,VALID,64.334,VALID,708.145,VALID,26.9392,VALID,309,VALID,0,
2012-11-22, 10:22:04,VALID,918.156,VALID,0,VALID,61.6811,VALID,733.286,VALID,26.9217,VALID,254,VALID,0,
2012-11-22, 10:23:04,VALID,917.691,VALID,0,VALID,63.686,VALID,545.801,VALID,26.7438,VALID,253,VALID,0,
2012-11-22, 10:24:04,VALID,917.809,VALID,0,VALID,62.8246,VALID,482.518,VALID,26.8806,VALID,254,VALID,0,
2012-11-22, 10:25:04,VALID,917.923,VALID,0,VALID,62.3367,VALID,771.535,VALID,26.8415,VALID,300,VALID,0,
2012-11-22, 10:26:04,VALID,917.85,VALID,0,VALID,63.3353,VALID,698.582,VALID,26.8415,VALID,300,VALID,0,
2012-11-22, 10:27:04,VALID,918.203,VALID,0,VALID,62.9008,VALID,563.636,VALID,27.076,VALID,300,VALID,0,
2012-11-22, 10:28:04,VALID,918.274,VALID,0,VALID,60.629,VALID,480.584,VALID,27.2518,VALID,300,VALID,0,
2012-11-22, 10:29:04,VALID,917.725,VALID,0,VALID,60.6367,VALID,559.016,VALID,27.3495,VALID,313,VALID,0,
2012-11-22, 10:30:04,VALID,917.985,VALID,0,VALID,60.3698,VALID,650.234,VALID,27.33,VALID,296,VALID,0,
2012-11-22, 10:31:04,VALID,917.665,VALID,0,VALID,61.803,VALID,509.379,VALID,27.4277,VALID,296,VALID,0,
2012-11-22, 10:32:04,VALID,917.769,VALID,0,VALID,60.4613,VALID,541.503,VALID,27.4277,VALID,238,VALID,0,
2012-11-22, 10:33:04,VALID,917.539,VALID,0,VALID,60.4994,VALID,793.56,VALID,27.3495,VALID,262,VALID,0,
2012-11-22, 10:34:04,VALID,917.813,VALID,0,VALID,60.5147,VALID,540.429,VALID,27.1346,VALID,261,VALID,0,
2012-11-22, 10:35:04,VALID,917.867,VALID,0,VALID,63.9681,VALID,654.961,VALID,26.9001,VALID,261,VALID,0,
2012-11-22, 10:36:04,VALID,917.85,VALID,0,VALID,63.7318,VALID,707.393,VALID,27.076,VALID,261,VALID,0,
2012-11-22, 10:37:04,VALID,917.941,VALID,0,VALID,63.9681,VALID,744.89,VALID,27.33,VALID,261,VALID,0,
2012-11-22, 10:38:04,VALID,916.069,VALID,0,VALID,63.4268,VALID,942.581,VALID,27.5275,VALID,261,VALID,0,
2012-11-22, 10:39:04,VALID,917.666,VALID,0,VALID,61.4524,VALID,864.794,VALID,27.6622,VALID,276,VALID,0,
2012-11-22, 10:40:04,VALID,917.484,VALID,0,VALID,61.4981,VALID,839.867,VALID,28.0335,VALID,276,VALID,0,
2012-11-22, 10:41:04,VALID,917.592,VALID,0,VALID,59.5617,VALID,639.705,VALID,28.3463,VALID,15,VALID,0,
2012-11-22, 10:42:04,VALID,918.303,VALID,0,VALID,61.0178,VALID,503.469,VALID,28.3484,VALID,33,VALID,0,
2012-11-22, 10:43:04,VALID,918.408,VALID,0,VALID,61.6582,VALID,611.34,VALID,28.3289,VALID,13,VALID,0,
2012-11-22, 10:44:04,VALID,917.566,VALID,0,VALID,60.9187,VALID,804.519,VALID,28.2898,VALID,26,VALID,0,
2012-11-22, 10:45:04,VALID,917.086,VALID,0,VALID,61.8564,VALID,610.803,VALID,28.1334,VALID,21,VALID,0,
2012-11-22, 10:46:04,VALID,917.659,VALID,0,VALID,59.9887,VALID,625.2,VALID,27.6448,VALID,63,VALID,0,
2012-11-22, 10:47:04,VALID,917.373,VALID,0,VALID,62.0012,VALID,608.009,VALID,27.2344,VALID,63,VALID,0,
2012-11-22, 10:48:04,VALID,917.587,VALID,0,VALID,64.1129,VALID,584.587,VALID,27.0976,VALID,63,VALID,0,
2012-11-22, 10:49:04,VALID,917.477,VALID,0,VALID,64.5017,VALID,861.678,VALID,27.293,VALID,63,VALID,0,
2012-11-22, 10:50:04,VALID,917.738,VALID,0,VALID,61.5286,VALID,929.366,VALID,27.3516,VALID,223,VALID,0,
2012-11-22, 10:51:04,VALID,918.356,VALID,0,VALID,61.0254,VALID,959.342,VALID,27.5449,VALID,209,VALID,0,
2012-11-22, 10:52:04,VALID,917.698,VALID,0,VALID,62.512,VALID,894.018,VALID,27.9749,VALID,65,VALID,0,
2012-11-22, 10:53:04,VALID,917.235,VALID,0,VALID,61.6201,VALID,615.208,VALID,28.3289,VALID,343,VALID,0,
2012-11-22, 10:54:04,VALID,917.33,VALID,0,VALID,59.7828,VALID,748.972,VALID,28.1703,VALID,292,VALID,0,
2012-11-22, 10:55:04,VALID,917.443,VALID,0,VALID,60.3165,VALID,507.552,VALID,28.1703,VALID,223,VALID,0,
2012-11-22, 10:56:04,VALID,917.683,VALID,0,VALID,60.2402,VALID,441.905,VALID,27.799,VALID,237,VALID,0,
2012-11-22, 10:57:04,VALID,917.477,VALID,0,VALID,61.1855,VALID,488.857,VALID,27.5861,VALID,339,VALID,0,
2012-11-22, 10:58:04,VALID,917.348,VALID,0,VALID,62.3672,VALID,464.361,VALID,27.5059,VALID,281,VALID,0,
2012-11-22, 10:59:04,VALID,917.826,VALID,0,VALID,62.4282,VALID,441.583,VALID,27.6231,VALID,224,VALID,0,
2012-11-22, 11:00:04,VALID,917.667,VALID,0,VALID,63.7699,VALID,421.384,VALID,27.7816,VALID,205,VALID,0,
2012-11-22, 11:01:04,VALID,917.453,VALID,0,VALID,59.9505,VALID,475.105,VALID,27.8793,VALID,327,VALID,0,
2012-11-22, 11:02:04,VALID,916.457,VALID,0,VALID,62.7636,VALID,504.006,VALID,27.7229,VALID,20,VALID,0,
2012-11-22, 11:03:04,VALID,917.314,VALID,0,VALID,63.343,VALID,831.057,VALID,27.6817,VALID,22,VALID,0,
2012-11-22, 11:04:04,VALID,917.156,VALID,0,VALID,61.9403,VALID,490.791,VALID,27.7795,VALID,14,VALID,0,
2012-11-22, 11:05:04,VALID,918.257,VALID,0,VALID,63.7699,VALID,643.895,VALID,27.8381,VALID,11,VALID,0,
2012-11-22, 11:06:04,VALID,917.343,VALID,0,VALID,61.2923,VALID,559.339,VALID,27.8967,VALID,356,VALID,0,
2012-11-22, 11:07:04,VALID,917.642,VALID,0,VALID,61.7573,VALID,874.893,VALID,27.7599,VALID,355,VALID,0,
2012-11-22, 11:08:04,VALID,917.567,VALID,0,VALID,63.3506,VALID,968.26,VALID,27.6622,VALID,42,VALID,0,
2012-11-22, 11:09:04,VALID,917.513,VALID,0,VALID,67.5358,VALID,907.985,VALID,27.6838,VALID,26,VALID,0,
2012-11-22, 11:10:04,VALID,917.307,VALID,0,VALID,63.9681,VALID,573.091,VALID,27.799,VALID,347,VALID,0,
2012-11-22, 11:11:04,VALID,917.377,VALID,0,VALID,62.2833,VALID,1031.76,VALID,27.9358,VALID,334,VALID,0,
2012-11-22, 11:12:04,VALID,917.508,VALID,0,VALID,63.3125,VALID,1070.76,VALID,28.1138,VALID,15,VALID,0,
2012-11-22, 11:13:04,VALID,916.855,VALID,0,VALID,60.9111,VALID,705.781,VALID,27.9944,VALID,325,VALID,0,
2012-11-22, 11:14:04,VALID,917.362,VALID,0,VALID,60.8501,VALID,991.682,VALID,27.9944,VALID,321,VALID,0,
2012-11-22, 11:15:04,VALID,917.219,VALID,0,VALID,61.4066,VALID,704.277,VALID,28.1529,VALID,37,VALID,0,
2012-11-22, 11:16:04,VALID,917.277,VALID,0,VALID,59.4322,VALID,582.224,VALID,28.2485,VALID,3,VALID,0,
2012-11-22, 11:17:04,VALID,916.965,VALID,0,VALID,61.3685,VALID,931.622,VALID,28.014,VALID,246,VALID,0,
2012-11-22, 11:18:04,VALID,915.317,VALID,0,VALID,60.1564,VALID,981.905,VALID,28.1313,VALID,341,VALID,0,
2012-11-22, 11:19:04,VALID,917.153,VALID,0,VALID,60.0496,VALID,978.359,VALID,28.1899,VALID,247,VALID,0,
2012-11-22, 11:20:04,VALID,916.406,VALID,0,VALID,61.3456,VALID,947.523,VALID,28.3658,VALID,334,VALID,0,
2012-11-22, 11:21:04,VALID,917.289,VALID,0,VALID,61.3304,VALID,970.838,VALID,28.2876,VALID,289,VALID,0,
2012-11-22, 11:22:04,VALID,917.227,VALID,0,VALID,61.5286,VALID,971.483,VALID,28.2681,VALID,35,VALID,0,
2012-11-22, 11:23:04,VALID,917.468,VALID,0,VALID,59.4855,VALID,960.416,VALID,28.4635,VALID,329,VALID,0,